Wind_Speed
42 42 41 41 40 40 40 40 40 38 38 38 38 38 39 39 39 39 39 40 41 41 40 41 41 40 40 40 40 40 40 39 39 37 35 34 33 32 32 31 30 29 29 28 27 26 26 25 24 22 20 19 17 16 15 14 13 12 10 9 9 9 10 10 9 10 13 12 12 12 10 10 12 13 14 14 13 14 15 16 17 19 20 21 21
43 42 41 40 40 40 40 40 40 39 38 38 38 39 39 40 40 40 40 41 41 41 41 41 41 41 41 41 41 41 41 40 40 39 37 36 35 33 33 33 33 32 31 30 29 28 27 27 25 23 20 19 18 17 16 15 13 13 12 11 11 11 11 13 12 12 13 15 14 13 12 12 13 15 14 14 15 16 17 18 18 18 19 21 22
44 42 41 41 41 41 40 39 39 39 39 39 39 40 40 40 40 41 42 42 42 42 42 41 41 42 42 42 41 41 41 41 41 40 38 37 36 35 35 35 35 34 33 32 30 29 28 27 27 25 22 20 18 17 18 17 15 14 14 13 13 13 13 15 15 14 15 17 16 14 13 13 14 15 15 15 16 17 18 19 18 18 18 20 21
43 42 41 41 41 41 40 39 39 40 40 40 40 41 40 40 40 42 42 42 42 42 42 41 41 42 42 42 42 42 42 42 41 40 39 38 38 38 36 36 36 35 34 32 30 29 29 28 27 25 24 22 20 18 18 18 17 16 16 15 15 15 15 16 17 18 18 17 16 16 15 15 15 16 15 16 17 17 18 19 18 18 18 19 20
41 42 42 41 41 41 41 40 40 41 41 41 41 41 40 40 41 42 42 42 42 42 41 41 41 42 43 43 43 43 43 42 41 41 40 39 38 38 37 36 36 35 33 32 31 30 29 29 27 26 25 24 23 21 19 18 17 17 17 17 17 17 17 17 18 19 19 19 19 18 17 16 17 16 15 16 17 18 19 19 18 19 20 19 19
40 41 41 40 41 42 41 41 41 42 43 42 41 41 41 40 41 42 42 42 41 41 41 42 42 43 43 43 43 43 43 42 42 41 40 39 37 37 36 35 35 34 33 33 32 31 30 29 28 27 25 25 24 23 21 20 19 18 18 19 19 19 20 20 19 20 21 22 22 20 19 18 17 16 15 14 16 18 20 20 19 18 18 18 18
39 40 40 40 40 42 43 43 43 43 44 43 42 41 41 41 42 42 42 41 40 40 41 43 43 43 43 43 43 43 42 41 41 40 38 38 37 36 34 34 34 34 33 33 32 31 30 29 29 28 26 25 25 24 24 22 20 20 21 21 21 22 22 21 21 21 22 23 22 21 20 18 17 16 16 13 14 17 19 20 20 18 15 15 16
38 39 40 40 41 42 44 44 44 44 43 43 41 41 41 42 42 41 41 40 40 41 42 42 42 41 41 42 42 41 40 40 39 38 37 36 36 36 35 34 33 33 32 32 32 31 31 30 30 30 28 26 25 25 25 23 21 21 22 23 24 24 24 23 23 23 23 22 22 21 19 18 17 17 17 15 15 16 16 16 18 17 14 12 14
39 39 39 40 42 43 43 43 43 43 42 42 42 42 42 42 41 40 40 40 41 41 41 40 40 39 40 40 39 39 39 39 39 38 37 37 37 36 36 35 34 33 31 31 31 31 31 30 31 31 30 29 27 25 24 23 22 23 23 23 24 24 24 24 23 23 21 20 21 21 19 19 19 18 17 16 16 16 15 14 15 15 14 15 17
39 39 40 42 42 42 42 42 42 42 42 42 42 42 42 41 41 40 40 40 40 39 39 39 39 39 38 38 38 38 39 39 39 39 38 38 39 38 37 36 35 33 31 30 30 30 31 31 31 30 30 29 28 27 25 24 23 23 23 22 22 23 24 24 24 22 21 20 21 21 17 18 20 19 17 17 16 16 16 16 16 17 17 18 22
40 41 42 41 40 41 41 41 41 41 42 42 42 43 42 41 40 40 39 39 39 38 38 38 38 38 38 37 38 39 39 39 38 39 39 40 41 40 38 36 33 32 31 31 30 31 31 31 31 30 29 29 29 27 25 25 24 24 23 23 23 23 23 24 24 22 21 21 22 20 17 18 21 20 17 17 17 17 17 16 16 17 17 15 17
40 41 41 40 39 41 41 41 41 41 41 42 42 42 41 40 39 38 38 38 38 37 37 38 38 38 37 38 39 40 40 39 39 39 40 41 42 40 38 34 32 32 33 32 32 31 31 30 30 30 30 29 28 26 25 25 25 24 24 23 23 23 24 25 25 24 24 22 20 18 17 18 20 20 18 17 18 17 16 16 16 18 18 16 16
41 41 40 40 40 42 41 40 40 41 41 42 41 40 39 39 39 39 39 38 37 37 37 37 37 37 38 39 40 39 39 39 40 40 41 42 42 41 38 34 32 33 33 33 33 33 32 31 30 30 30 28 27 25 25 25 23 22 22 22 23 24 24 26 27 27 23 17 15 17 19 19 20 20 19 18 18 17 15 16 18 19 20 19 20
40 40 40 41 42 42 41 40 40 40 40 40 39 38 39 39 39 39 38 37 36 36 37 37 37 38 39 39 39 39 38 39 40 40 41 41 41 41 39 35 32 33 34 34 33 32 32 31 30 30 29 28 26 25 25 24 22 22 23 23 24 25 25 27 27 21 13 10 15 20 22 20 20 19 18 17 19 18 17 19 21 21 20 20 22
39 39 39 40 41 41 40 40 40 39 39 38 38 38 38 38 38 38 36 36 37 37 37 37 37 38 39 38 38 37 38 39 39 39 40 40 40 41 40 36 32 32 33 33 32 31 30 29 29 30 30 30 29 27 25 25 23 23 23 23 23 24 25 27 22 13 9 13 18 20 20 19 18 18 17 17 19 18 18 19 19 19 20 21 23
38 38 38 40 41 42 42 41 39 38 38 37 37 37 37 37 37 37 35 35 36 37 37 37 38 38 37 37 37 36 36 37 38 38 38 38 39 40 39 34 31 30 31 31 30 30 29 28 28 29 30 30 29 27 25 25 23 21 20 21 22 23 25 24 17 12 15 18 17 16 17 17 17 17 16 16 15 14 13 14 16 18 19 19 21
37 38 38 40 42 42 42 40 39 38 37 37 37 37 37 37 37 36 35 34 35 36 37 37 38 38 37 37 36 35 34 36 37 37 37 37 38 39 37 33 30 29 29 29 29 28 28 28 28 30 30 29 27 24 22 22 21 19 20 21 22 24 25 22 15 13 14 13 11 12 14 13 13 13 12 11 10 11 11 14 16 18 17 14 14
37 38 39 41 42 42 42 40 38 37 37 38 38 38 37 37 36 36 36 36 36 36 36 36 36 37 37 38 37 36 35 36 36 36 36 36 38 38 36 32 30 29 28 28 28 27 27 27 28 29 29 27 24 21 20 21 21 20 22 23 22 24 26 22 16 12 10 9 11 12 12 11 10 9 9 10 11 12 14 16 17 18 16 14 13
38 40 42 42 41 41 40 39 38 38 38 39 39 38 38 36 36 36 36 36 36 35 34 34 34 35 36 37 37 37 36 35 35 34 34 35 37 37 34 31 28 27 27 27 27 26 26 27 27 28 28 26 23 21 21 21 21 22 25 25 24 26 26 21 16 14 14 14 15 14 14 14 13 14 15 15 13 13 14 15 14 13 13 14 14
42 43 43 40 39 39 39 39 39 39 39 40 39 38 37 35 34 35 35 35 34 33 33 33 33 33 33 34 34 34 33 32 32 32 33 34 36 35 33 30 28 26 26 26 25 25 26 27 27 27 27 26 23 22 20 20 21 25 26 25 25 26 23 17 14 15 15 15 15 16 17 18 18 18 18 14 11 10 12 11 8 8 9 11 13
42 41 39 37 38 40 40 41 41 40 40 39 37 36 36 35 36 36 34 33 33 32 32 32 30 29 28 28 28 28 29 28 28 30 31 32 34 33 31 30 29 27 26 25 25 25 25 26 26 26 24 22 21 22 21 21 22 24 23 23 23 22 17 13 13 14 14 15 16 18 19 19 19 17 14 11 10 10 10 9 8 10 12 12 13
37 35 35 36 38 40 41 42 42 40 38 38 36 35 35 36 36 35 34 33 32 31 29 28 26 24 22 21 22 23 24 23 24 26 28 29 31 32 30 29 29 27 25 24 24 25 25 26 26 24 22 21 22 23 23 23 22 22 20 20 20 17 13 11 12 12 13 15 17 18 18 17 16 13 10 9 9 10 10 10 11 14 15 14 14
35 34 34 36 37 39 41 42 41 39 38 39 38 35 34 34 35 35 34 33 30 28 26 25 23 21 18 17 18 19 19 19 19 20 23 25 26 27 27 27 27 27 26 26 26 26 25 25 25 23 23 22 21 21 23 22 21 20 19 17 16 14 12 12 12 12 14 15 16 17 17 15 13 10 7 8 9 9 11 12 15 17 17 16 15
35 33 34 34 36 37 38 39 39 39 39 39 37 34 33 33 33 33 33 31 28 25 23 23 22 20 19 17 16 16 17 16 15 16 19 22 24 25 25 26 26 26 27 26 26 26 24 23 23 22 20 19 18 19 21 19 15 12 13 13 13 13 12 12 13 13 14 15 15 15 15 13 11 9 8 9 10 11 13 15 16 17 16 15 15
32 32 33 33 34 34 35 36 37 38 40 40 38 36 34 33 31 30 30 29 27 24 22 22 22 21 20 19 17 17 17 15 14 14 17 21 23 25 26 27 25 24 25 23 22 21 20 19 18 16 14 14 14 16 18 15 11 9 10 12 13 14 13 13 13 13 14 14 13 13 13 11 10 10 9 10 11 12 14 15 15 15 14 14 16
26 29 30 32 34 35 34 34 35 37 39 40 39 38 37 35 32 30 29 28 26 25 24 23 23 22 22 21 20 20 18 15 14 16 17 19 22 24 26 27 25 23 21 20 18 16 14 13 12 11 11 12 12 13 15 14 11 10 11 13 14 15 14 13 13 13 13 13 12 12 12 11 12 12 11 11 12 12 13 14 15 14 14 15 18
19 25 28 31 34 37 36 35 35 36 37 37 37 36 36 36 34 31 29 28 26 25 25 25 25 24 23 22 22 21 20 17 17 19 20 21 22 24 26 28 27 23 19 16 14 13 12 10 10 9 9 10 11 11 12 13 12 12 13 14 15 14 13 11 11 12 13 13 13 14 14 14 14 13 12 11 12 12 12 13 14 15 15 17 19
6 16 26 31 32 35 37 38 36 35 35 35 35 34 34 35 34 32 32 31 29 27 27 27 27 26 25 24 22 20 20 20 21 22 23 23 24 25 27 27 27 25 20 16 13 12 11 11 11 11 11 11 11 12 13 14 14 14 15 15 14 13 12 12 12 13 14 15 15 16 16 16 14 12 11 11 12 12 11 12 13 14 15 17 18
10 5 6 17 23 27 32 36 36 35 35 36 34 32 32 34 33 32 31 30 29 30 29 29 28 28 27 25 23 21 21 23 24 23 22 23 24 24 25 26 25 25 23 19 16 14 14 14 15 14 13 12 12 14 14 14 15 15 16 15 14 14 13 14 15 16 16 15 16 17 18 17 14 11 10 11 11 10 10 10 12 14 16 17 18
17 15 11 8 15 20 21 25 29 32 35 37 35 29 27 29 31 31 29 27 27 28 28 28 27 26 25 23 22 22 22 23 22 21 20 20 21 22 22 22 22 22 22 21 18 16 17 17 16 15 14 14 14 15 15 15 16 16 16 16 16 16 15 16 16 16 15 15 16 17 16 13 11 9 9 9 9 8 9 10 12 14 16 17 18
24 20 13 11 15 19 18 19 23 26 30 35 36 32 27 24 23 24 25 24 22 22 22 21 21 20 20 20 21 22 22 20 19 20 19 18 17 17 17 18 19 20 21 21 20 19 19 18 17 16 15 15 15 15 15 15 16 16 16 16 17 17 17 17 15 13 12 12 11 11 9 8 8 8 7 6 7 8 9 10 12 13 15 15 16
27 27 22 16 16 18 18 19 23 25 27 31 33 32 29 24 19 18 19 19 18 18 18 17 16 17 18 19 22 23 20 18 16 16 16 15 14 13 13 14 16 18 20 21 21 21 20 18 18 17 16 14 14 14 14 15 14 13 13 14 14 14 14 13 11 8 7 7 7 7 7 7 7 6 5 6 7 9 9 10 10 12 14 15 16
28 29 27 22 20 21 22 21 23 26 28 29 29 30 28 25 22 21 19 18 18 18 18 18 19 20 21 22 22 20 18 16 14 14 14 14 13 12 13 13 15 18 21 22 21 20 19 18 17 15 13 11 12 11 11 10 8 5 4 5 5 5 6 6 6 7 8 7 6 6 6 6 6 6 7 8 8 8 8 8 10 12 14 16 18
28 29 27 25 24 25 24 23 23 26 27 27 27 27 26 25 25 25 23 20 18 17 18 20 21 22 23 23 20 18 16 16 16 16 16 15 14 14 15 16 17 19 21 21 20 19 19 18 14 12 10 9 9 9 9 8 8 8 8 7 7 7 8 9 9 8 7 6 5 5 5 6 7 8 8 8 6 6 6 8 11 13 15 17 19
25 28 27 25 25 25 25 25 26 26 26 26 26 26 26 26 26 26 23 21 19 18 18 19 20 21 21 20 18 16 17 18 18 19 18 17 16 17 18 20 21 22 22 21 19 19 18 16 13 13 14 14 14 15 14 13 11 10 11 11 10 10 10 9 8 6 5 5 5 4 5 5 4 5 4 4 3 5 7 10 12 14 16 18 20
20 24 26 25 25 24 24 26 26 26 26 26 25 26 27 27 26 25 24 23 22 21 19 19 19 19 19 19 18 17 16 18 20 20 19 18 18 19 21 23 24 24 23 21 20 18 16 15 15 15 15 15 14 14 13 11 9 8 9 10 10 10 9 8 6 5 4 4 4 4 3 1 2 2 2 2 4 6 9 11 12 14 16 18 19
19 20 22 23 23 23 22 24 25 25 25 26 26 27 27 26 25 24 24 23 23 23 22 22 21 20 19 18 18 18 18 20 21 20 19 19 18 19 21 23 24 23 22 21 20 18 16 15 15 15 14 13 13 12 11 9 8 8 7 8 8 8 7 7 6 4 3 3 4 5 4 2 2 1 1 3 6 8 10 11 13 14 16 17 18
22 21 22 22 22 23 23 23 24 25 25 24 25 26 25 25 25 24 23 23 24 24 24 24 22 22 22 20 20 21 22 22 22 21 20 20 20 20 20 21 22 23 22 21 21 20 16 14 15 15 14 13 12 11 10 9 8 8 7 7 6 6 6 6 5 4 3 2 3 4 4 3 1 0 2 5 7 9 10 12 13 15 16 17 19
21 23 24 24 23 23 23 23 23 24 23 22 23 23 23 22 22 22 22 23 23 23 23 23 22 22 24 24 24 24 24 24 24 24 23 22 21 21 20 19 20 20 20 20 20 18 16 15 16 15 13 12 11 10 9 8 8 7 6 6 6 6 6 6 5 4 3 2 3 3 3 2 1 0 3 6 7 9 11 12 13 15 16 19 20
20 22 23 23 23 22 22 23 23 22 22 21 21 22 22 21 21 22 23 22 21 21 22 22 22 23 25 25 26 26 25 25 26 26 25 24 23 21 19 18 18 18 18 19 19 17 17 18 17 14 12 11 9 9 8 7 7 7 7 6 6 7 7 6 5 4 3 1 1 3 3 2 1 2 4 6 7 9 10 12 13 15 17 19 20
17 21 22 21 22 22 21 22 22 21 21 20 20 21 22 22 23 23 23 21 20 20 21 21 22 24 25 25 25 25 26 26 27 27 26 26 25 23 20 18 17 17 18 19 18 18 19 19 16 12 11 9 8 8 8 8 8 9 8 7 7 7 7 6 4 4 3 3 4 5 4 2 2 4 6 7 8 9 10 12 13 15 16 18 20
12 19 21 20 21 22 21 20 21 21 21 21 21 21 22 24 24 23 21 20 19 19 19 20 20 22 24 25 25 25 24 25 26 26 25 25 24 24 22 19 16 16 17 18 19 20 20 18 15 12 10 8 7 8 8 9 9 9 8 8 9 8 7 5 4 4 5 5 6 5 4 3 4 6 7 9 10 10 11 12 13 14 16 18 19
10 15 18 20 20 21 20 19 19 19 19 20 20 20 21 22 23 22 21 19 18 19 19 18 18 20 23 24 24 23 21 22 23 23 23 23 23 24 23 20 15 13 15 18 20 21 20 17 15 12 10 9 8 7 7 8 8 8 9 9 8 8 7 7 7 7 6 6 5 4 3 4 6 8 10 11 11 11 11 11 12 14 16 18 19
9 9 11 14 16 18 19 20 20 20 19 18 19 20 21 22 22 21 21 20 19 18 18 18 19 20 22 24 24 21 18 18 19 19 19 20 21 22 22 19 16 15 19 21 22 21 19 17 16 14 11 10 8 7 6 7 8 9 10 9 8 8 9 9 9 8 6 4 3 3 5 7 9 12 13 13 12 11 10 10 12 15 17 17 18
11 9 8 10 13 15 16 19 22 23 21 20 19 18 19 20 20 19 20 20 20 19 19 19 19 20 23 25 25 21 18 17 17 17 18 19 20 20 20 19 18 20 24 24 23 21 19 17 16 14 12 10 9 7 7 8 8 8 8 7 6 7 8 9 8 6 4 2 3 6 8 10 12 13 13 12 10 8 8 10 12 15 16 16 17
13 13 10 9 12 15 15 16 20 22 21 20 20 19 18 19 19 18 17 19 21 22 22 21 20 21 23 25 25 22 19 18 17 17 17 18 18 19 20 20 21 24 25 24 22 21 18 16 14 13 12 10 9 8 8 8 8 7 6 5 4 4 4 6 5 2 2 3 6 8 9 11 12 12 11 10 8 7 7 10 11 13 14 15 17
15 16 14 12 12 16 17 16 16 16 15 17 21 23 23 23 23 21 18 19 22 23 23 23 22 22 23 24 24 23 22 20 18 17 16 17 19 21 21 22 24 26 25 24 22 20 17 16 14 13 11 9 9 9 9 8 8 7 5 3 2 1 1 2 2 2 4 5 7 8 9 10 10 10 10 8 7 6 7 9 10 12 13 15 17
12 14 14 13 12 11 9 8 10 12 13 14 18 21 23 23 22 20 19 20 22 23 23 24 24 23 23 22 23 24 24 23 20 17 15 16 19 22 23 24 26 27 25 24 22 20 18 17 15 13 11 10 10 9 9 9 8 6 3 1 1 2 2 1 1 3 4 5 7 9 9 9 9 9 9 8 7 7 7 8 9 11 13 15 17
6 7 9 9 8 8 8 9 11 14 16 16 16 16 18 19 19 19 20 21 22 23 24 24 24 23 21 21 22 23 24 24 22 18 15 15 18 22 23 25 28 28 26 25 24 22 19 17 16 14 12 12 10 10 10 10 9 7 3 2 3 4 3 2 2 3 4 6 8 9 8 8 8 9 8 6 6 6 6 7 8 11 14 15 15
7 7 8 8 7 8 11 13 14 14 15 16 15 16 18 20 21 21 22 22 21 21 22 22 21 21 21 21 21 22 22 21 20 18 16 15 18 22 25 27 29 29 27 25 24 21 19 18 17 16 14 13 11 11 11 11 10 8 5 4 5 5 3 2 2 4 5 7 8 8 7 8 8 8 6 5 5 4 5 6 9 12 13 12 12
8 9 10 10 8 9 11 13 14 13 13 14 15 17 20 22 24 24 23 21 20 19 19 19 19 21 21 20 20 20 20 18 17 16 16 17 19 22 25 27 29 28 26 24 23 22 21 21 20 18 16 15 14 14 13 11 10 9 7 6 5 5 3 2 3 3 4 6 7 7 7 8 8 6 5 5 5 4 5 7 9 10 9 9 11
Wind_Direction
197 198 200 201 202 204 206 208 209 210 210 210 210 210 210 209 208 207 207 207 207 207 207 208 208 208 210 212 212 211 211 211 212 215 217 218 218 217 214 212 213 215 216 219 221 222 224 224 225 227 228 230 229 225 222 220 219 218 221 231 233 231 231 223 223 251 268 276 284 293 301 303 302 305 304 301 302 303 301 295 289 287 288 288 290
196 198 198 200 202 203 205 207 208 209 210 211 212 211 210 210 209 207 208 209 208 208 209 209 209 209 210 212 212 212 212 211 212 214 216 217 217 215 214 213 214 216 217 219 221 223 226 226 226 227 228 229 230 232 228 221 218 221 225 234 241 240 239 236 233 241 261 273 281 289 293 293 295 299 301 301 304 308 306 303 297 291 289 291 292
196 196 197 199 201 202 204 205 207 209 210 211 212 212 211 210 209 208 209 210 210 210 211 211 210 210 211 212 212 212 212 211 211 213 215 216 215 215 214 214 216 217 218 220 221 222 224 227 228 227 227 229 230 229 227 224 226 232 236 240 244 245 245 247 244 241 251 267 278 281 279 278 283 289 293 294 296 300 302 304 303 299 298 298 297
195 195 196 198 200 201 202 204 205 207 209 211 212 212 212 210 209 209 210 210 211 212 212 212 211 211 211 212 212 212 212 211 212 213 216 218 218 216 216 216 218 220 221 222 222 222 223 227 229 229 228 230 231 229 227 229 235 239 240 239 242 247 250 250 250 248 251 261 270 273 272 273 277 284 288 289 292 296 299 300 299 299 300 300 300
194 194 195 197 198 200 201 202 204 206 209 211 212 212 211 210 210 210 210 210 211 212 212 212 212 212 212 212 213 213 213 213 213 214 217 220 220 219 218 219 221 223 225 225 225 224 225 228 230 230 230 232 233 232 232 235 240 242 243 242 243 247 251 251 251 252 253 256 263 268 269 270 275 280 281 284 290 296 297 296 294 295 297 298 297
194 194 195 195 197 199 200 201 203 206 209 211 212 212 211 211 211 210 210 211 211 212 211 212 213 213 214 214 214 214 214 214 215 216 217 219 220 221 221 222 223 225 227 228 228 228 227 230 232 232 232 234 234 233 234 237 242 243 243 244 244 245 247 249 251 253 254 256 261 264 265 267 273 278 279 282 288 293 295 294 291 291 293 295 295
194 194 195 196 197 199 199 201 203 206 208 210 211 211 211 212 212 212 211 211 211 211 212 213 214 214 215 215 215 216 216 215 216 217 217 218 219 221 223 223 224 226 228 228 229 229 229 230 232 233 234 233 233 235 236 238 242 243 242 244 245 244 244 246 249 251 253 256 259 261 264 268 272 276 283 286 285 287 289 287 287 290 291 288 288
195 195 195 197 199 200 200 201 203 205 208 209 210 211 212 213 213 213 212 212 212 213 213 214 214 214 215 216 216 217 216 216 216 216 216 218 220 222 223 223 224 226 227 228 229 229 230 231 232 235 235 233 233 236 236 238 242 243 245 248 247 244 244 246 247 248 251 253 255 257 262 268 272 277 285 287 285 286 287 282 282 289 292 284 281
196 196 196 199 201 201 201 202 203 205 207 208 209 211 213 214 214 214 213 213 214 214 215 215 214 215 215 216 216 216 217 217 216 215 215 217 221 223 224 224 224 224 225 227 229 229 230 232 233 235 236 235 234 235 238 242 244 245 248 250 246 244 246 247 245 244 245 245 248 253 258 264 272 280 287 290 290 291 294 289 283 288 295 294 293
196 196 199 202 202 201 201 202 203 204 205 207 209 210 213 214 214 214 214 214 215 215 215 215 215 215 215 215 216 216 217 217 217 216 216 219 223 224 225 225 223 222 223 224 226 229 231 232 233 235 236 235 234 236 241 244 242 244 249 250 247 247 248 246 243 242 240 239 244 250 254 263 274 282 286 290 294 293 292 290 287 290 298 301 303
197 198 201 203 201 201 202 202 202 204 205 207 208 210 212 213 213 214 214 215 215 215 215 215 216 216 215 215 216 217 218 218 217 216 219 223 226 225 225 224 221 220 222 224 225 228 229 231 233 235 235 233 233 235 239 241 242 246 250 251 253 256 254 249 244 242 239 240 246 252 254 265 279 285 284 287 293 291 284 281 282 287 293 297 299
198 200 202 202 201 201 203 202 202 204 205 207 208 209 211 212 212 213 214 214 214 214 214 215 215 216 215 216 217 218 218 218 217 217 222 227 228 225 224 223 220 218 221 225 227 227 228 229 231 232 232 231 231 233 237 242 245 247 248 251 258 263 262 257 253 251 248 244 247 255 263 271 280 284 285 289 292 287 279 275 276 280 285 286 282
199 201 201 200 201 202 203 202 202 204 205 206 208 209 210 210 211 212 213 214 214 213 214 215 215 215 215 216 218 218 218 218 218 219 224 229 228 225 224 223 220 218 221 225 226 226 226 226 226 229 230 229 230 232 236 240 241 243 247 255 265 269 268 263 257 254 251 248 254 269 278 279 279 284 291 293 288 282 274 274 277 279 281 282 280
200 201 200 200 201 202 202 202 203 204 205 205 206 207 209 210 211 211 212 213 213 212 213 214 214 215 216 216 218 218 218 218 218 220 225 229 228 225 224 223 220 220 223 226 226 226 225 224 225 228 227 227 228 230 233 237 242 248 254 262 270 272 268 260 251 245 242 254 272 282 284 281 280 287 294 292 284 279 275 276 280 283 284 286 286
200 201 201 200 201 201 201 202 203 203 203 203 205 206 208 209 210 211 211 211 212 213 213 213 214 215 216 216 217 217 218 218 218 220 224 228 228 225 223 222 220 220 223 226 227 227 226 226 228 230 228 226 227 229 235 242 250 257 261 267 271 271 268 259 247 235 247 265 272 278 281 282 285 288 291 290 285 283 281 280 282 285 287 288 289
200 201 201 201 201 201 201 201 201 201 201 201 203 205 207 208 209 209 209 210 212 213 213 213 214 215 215 215 215 215 217 217 217 220 224 227 227 223 220 219 218 218 222 227 228 228 228 228 230 231 231 230 230 233 239 245 252 259 262 266 267 266 265 258 246 247 265 270 272 276 279 283 286 286 286 284 280 282 283 281 282 285 286 287 291
200 201 202 202 201 202 201 200 199 198 197 198 201 203 205 206 208 207 206 208 209 211 212 212 213 214 213 214 214 213 215 217 218 220 223 224 223 220 216 215 215 217 222 227 229 229 229 229 231 231 231 231 232 234 239 244 249 254 258 260 261 260 258 254 255 266 271 267 266 270 276 285 288 287 287 281 280 286 282 275 281 289 288 285 288
201 201 203 203 201 201 200 199 197 195 195 197 199 201 203 204 205 204 204 205 207 209 210 209 210 212 212 213 213 212 214 217 219 220 220 221 220 217 213 211 211 215 221 226 228 227 228 229 230 229 229 228 230 237 244 246 247 251 256 255 251 252 254 255 262 274 274 267 267 269 274 283 289 291 292 288 288 287 281 282 290 293 289 285 286
203 203 204 204 201 200 199 198 197 195 195 197 198 199 201 202 202 201 202 204 205 206 205 204 206 208 211 213 213 213 215 217 218 217 217 218 218 215 210 207 208 212 218 222 223 224 226 226 224 225 226 227 233 246 253 251 250 253 254 249 244 248 254 257 264 277 285 286 284 281 280 284 291 297 297 294 290 286 288 296 302 300 297 298 299
206 205 205 203 199 198 197 197 196 195 196 197 197 197 198 197 196 196 197 199 200 200 200 200 202 205 208 211 213 213 214 216 216 215 215 218 218 213 207 205 206 210 214 217 218 219 221 222 221 224 227 231 241 255 260 257 256 253 247 241 240 244 249 256 271 283 288 286 284 284 286 289 294 297 297 295 291 293 300 304 306 312 318 313 305
208 207 204 200 198 197 196 195 196 196 195 195 193 193 193 192 190 190 190 191 191 191 192 194 196 198 201 205 207 209 213 216 216 214 216 220 218 213 207 206 208 209 210 211 213 213 214 216 218 220 227 238 250 260 263 261 256 249 243 241 243 245 248 262 276 280 278 278 282 287 291 294 296 296 294 291 291 297 301 297 300 314 320 314 302
210 207 203 199 197 196 194 193 193 192 192 189 187 187 187 187 185 184 183 183 182 180 182 184 184 184 187 194 199 203 210 216 217 215 216 218 217 213 211 211 211 209 206 205 208 209 211 213 216 221 234 248 256 263 266 260 248 243 244 248 250 252 261 272 273 271 274 280 287 291 293 296 298 298 294 291 293 295 292 289 298 311 316 314 307
208 205 201 199 196 194 193 190 188 186 185 183 181 180 179 178 178 178 178 175 172 171 172 172 170 168 170 179 189 197 204 209 212 212 212 212 212 212 213 216 215 210 208 208 211 212 215 220 226 235 247 254 260 267 265 251 237 240 246 245 246 256 269 271 269 273 282 288 290 290 292 296 298 292 284 284 286 284 285 291 300 307 311 311 307
202 200 197 195 194 192 189 185 182 179 178 176 174 171 170 170 170 171 171 168 164 162 162 162 162 161 163 170 181 192 198 202 204 206 208 209 209 209 212 215 217 216 215 216 218 221 225 232 238 245 252 257 263 268 260 239 219 226 238 237 243 258 266 268 272 278 283 284 284 286 291 294 288 275 273 281 284 285 292 298 302 305 307 308 308
194 192 191 189 188 185 181 179 176 173 171 170 167 164 163 162 161 161 162 161 157 154 155 160 161 161 166 173 181 189 194 198 200 201 206 211 210 207 207 210 215 218 218 219 223 228 233 239 243 245 250 255 257 256 250 235 212 211 229 236 246 257 261 264 269 272 274 274 276 282 288 287 278 273 279 284 285 291 301 305 305 307 310 312 313
191 186 183 182 179 175 172 170 168 166 166 165 163 162 161 158 155 154 155 154 155 155 156 159 161 165 173 180 184 187 186 187 193 196 197 203 205 203 202 205 209 212 215 218 224 228 230 232 233 235 238 243 242 239 239 238 232 228 232 237 245 252 257 261 264 267 268 268 270 276 280 281 281 283 283 280 284 297 306 306 306 311 317 318 318
201 187 177 174 172 168 165 161 158 158 157 156 156 156 157 155 152 150 152 152 154 157 160 163 167 171 177 180 182 183 181 181 191 197 195 196 199 198 199 202 203 205 208 212 213 212 211 209 210 215 216 215 218 222 226 230 232 232 235 241 248 253 258 264 268 268 266 266 270 275 280 283 287 289 282 276 285 300 306 306 308 315 322 323 320
237 198 181 174 168 164 159 154 151 150 148 148 148 149 152 154 153 154 160 162 161 163 167 172 176 177 176 175 175 175 179 187 195 199 199 198 200 200 201 203 205 205 203 198 192 191 192 190 187 191 196 199 203 208 213 218 225 233 241 248 254 258 261 264 265 262 261 263 268 272 279 285 289 287 278 275 289 304 311 313 315 319 324 325 321
31 360 185 165 153 151 151 147 144 142 138 138 139 142 149 154 154 157 165 171 176 179 179 179 181 181 179 177 174 172 181 194 201 203 203 204 205 205 205 205 206 207 204 197 190 184 183 185 187 188 192 200 205 208 214 222 233 243 251 256 259 260 259 260 260 261 263 265 268 273 281 285 281 272 269 278 295 308 314 318 320 321 323 324 321
83 47 29 71 110 120 127 129 130 132 131 131 129 129 137 149 154 158 165 174 183 188 187 184 184 183 181 181 184 187 192 198 202 203 206 209 210 210 209 208 209 209 203 197 194 189 185 185 188 191 196 204 212 219 227 236 244 253 259 263 265 265 265 263 262 264 268 271 271 273 275 272 263 258 268 283 297 307 312 317 321 323 326 327 326
109 98 83 78 96 106 111 119 127 131 130 129 127 125 123 130 144 157 165 171 177 182 185 187 187 186 185 188 196 201 202 201 201 202 205 208 209 208 206 207 207 204 197 192 191 190 188 186 188 195 204 210 219 231 239 245 253 262 267 271 272 271 269 266 264 263 264 262 259 255 251 246 247 254 265 281 295 306 313 319 324 329 334 336 332
112 113 116 115 113 120 132 141 141 135 128 125 128 128 124 119 121 135 151 163 169 172 177 183 186 189 194 199 200 201 202 202 201 200 199 197 194 190 190 194 195 193 192 190 186 184 187 191 194 201 210 218 229 242 252 258 264 268 271 273 272 269 268 267 261 249 234 224 222 223 223 229 236 242 258 283 299 308 315 324 336 341 343 343 338
111 116 129 140 142 143 148 149 141 132 127 127 129 131 130 127 121 119 127 142 155 164 172 179 184 189 195 201 202 201 197 190 182 179 181 180 177 174 173 176 179 179 182 184 183 183 188 196 202 209 218 227 236 243 248 250 247 236 231 241 241 235 234 228 211 196 191 192 196 202 211 226 242 254 271 287 298 310 322 338 349 350 346 342 339
126 132 143 151 150 146 144 140 132 128 128 130 132 134 137 139 135 129 128 131 138 147 158 169 177 184 190 196 199 196 186 173 166 166 168 167 167 165 161 161 168 177 183 187 187 187 189 194 201 202 193 183 179 174 167 162 158 154 152 149 145 148 159 171 177 180 184 192 202 218 241 260 267 271 277 287 298 317 339 353 355 349 344 340 335
134 137 142 145 142 139 138 134 131 131 133 135 137 140 142 144 144 142 141 140 136 135 141 152 163 173 180 184 182 177 170 166 166 169 168 165 165 163 157 158 167 178 186 191 190 187 188 189 187 175 162 152 149 148 147 146 143 143 147 150 152 155 161 173 183 189 198 212 224 241 254 262 272 284 294 306 327 346 353 353 348 342 339 336 332
128 131 136 140 139 136 136 137 137 139 141 143 145 148 149 150 150 149 148 146 144 142 144 148 153 161 169 172 169 164 162 164 167 170 170 169 168 165 162 165 173 179 186 190 189 186 184 182 174 163 158 154 153 153 155 156 153 151 153 158 163 166 169 176 183 187 201 214 215 217 224 246 296 310 323 342 350 352 349 345 341 337 336 336 333
132 131 133 136 138 138 138 140 142 146 148 149 152 153 153 154 154 153 151 150 151 153 154 153 153 155 159 162 163 162 162 165 167 169 169 169 170 171 172 174 177 180 183 186 186 181 175 170 167 164 161 161 160 161 163 164 163 163 161 159 159 159 160 165 170 176 189 207 223 232 238 246 264 271 324 345 345 348 346 343 340 339 338 338 335
147 148 146 144 144 144 145 146 150 153 154 155 156 157 156 156 156 156 156 157 159 159 159 158 158 158 158 158 161 162 163 164 164 164 166 169 173 178 182 182 181 182 182 182 183 181 175 168 167 167 164 163 164 166 167 167 165 161 155 152 155 158 160 164 170 181 199 245 274 265 253 238 219 265 347 342 343 348 346 341 341 341 339 338 335
154 155 152 149 147 148 151 154 156 157 158 158 159 160 158 156 157 160 161 161 162 162 160 159 160 161 161 161 162 162 162 162 163 165 169 173 178 183 187 187 186 187 187 186 187 188 181 172 169 167 165 164 165 167 168 168 164 156 148 151 161 167 170 175 183 194 215 272 293 265 235 213 188 339 344 341 344 346 342 339 342 341 338 335 335
154 152 150 151 151 152 156 158 158 161 163 163 164 166 165 163 164 166 165 163 162 162 162 162 165 168 168 167 167 167 166 167 169 171 173 176 179 182 184 187 189 191 192 191 191 186 176 170 168 167 164 162 163 167 170 170 167 164 161 165 174 178 180 187 200 210 218 231 204 184 178 169 185 308 325 331 336 337 336 337 339 338 335 335 335
152 150 151 154 156 158 160 162 164 167 168 167 169 172 170 167 167 168 166 165 164 165 168 172 175 176 176 175 175 177 176 175 175 177 178 179 182 182 180 181 184 187 190 189 184 174 168 167 166 162 158 160 165 171 174 175 175 175 176 178 178 178 180 187 202 213 207 184 174 178 185 213 288 311 318 323 325 326 326 329 332 333 333 335 336
157 159 159 159 161 163 165 166 168 169 168 169 174 175 169 165 167 169 168 167 168 170 174 179 182 182 181 179 179 180 181 180 179 180 182 185 187 187 184 177 174 179 187 187 180 171 167 165 162 159 160 166 176 183 185 187 187 185 184 183 180 182 189 201 209 211 207 197 192 197 214 253 294 312 317 319 320 319 318 324 330 331 331 334 336
166 168 167 166 167 170 171 169 166 163 163 167 173 173 168 166 170 172 169 167 169 173 177 179 182 183 183 181 180 180 182 183 183 185 188 190 192 192 189 180 172 174 182 181 175 170 167 165 163 165 172 178 184 190 196 200 202 199 192 190 192 199 211 219 217 211 208 204 203 217 251 285 306 314 316 318 318 316 317 323 328 330 331 334 335
140 147 162 167 167 168 169 167 161 158 160 166 172 174 173 172 171 170 166 164 167 175 178 179 181 183 182 180 179 179 182 185 187 190 193 193 193 193 191 184 175 170 171 171 170 170 170 168 165 166 170 175 179 185 192 197 202 203 200 202 208 216 221 222 214 205 204 209 232 282 303 309 311 312 313 315 313 311 314 322 326 329 332 334 333
146 148 163 166 157 152 154 156 155 153 153 154 156 160 165 165 161 159 160 162 166 173 176 176 178 180 181 181 181 181 182 185 188 191 193 193 193 191 188 183 177 172 170 170 171 173 173 170 167 167 169 170 173 180 187 191 197 203 208 216 223 223 220 213 204 199 204 243 298 311 310 310 310 309 310 310 307 303 309 318 325 330 333 333 333
166 167 176 174 149 129 119 126 138 144 146 143 137 135 142 149 150 153 162 167 168 170 173 173 174 176 178 180 182 183 183 185 188 190 191 190 188 185 181 179 177 175 172 171 173 175 175 175 176 177 175 173 175 183 189 195 203 210 215 220 223 222 214 205 201 214 281 309 317 315 312 310 310 309 309 306 295 289 301 314 325 334 335 333 333
173 176 186 184 151 122 110 114 128 139 145 145 142 143 148 154 157 162 172 176 173 171 171 171 172 174 176 178 181 183 183 185 188 190 191 191 186 182 179 177 176 175 174 174 175 178 181 184 185 182 178 179 185 190 192 198 205 206 204 208 211 187 177 193 221 301 324 326 323 317 312 311 308 305 305 298 280 275 297 315 329 337 336 334 336
172 171 171 164 142 122 116 127 138 141 148 154 153 153 157 162 165 168 174 175 172 170 170 170 172 174 175 178 181 183 184 185 186 187 193 196 193 188 184 182 180 179 178 179 181 184 187 187 185 183 182 188 193 195 197 202 202 192 180 197 217 192 176 193 259 303 317 320 319 316 312 308 303 301 300 288 265 269 300 319 330 335 334 334 338
144 146 148 149 146 143 151 161 160 155 159 167 168 161 160 165 170 172 174 173 171 170 170 171 173 175 177 180 185 188 190 192 194 194 197 198 196 195 194 191 187 185 184 184 185 186 187 188 187 187 188 192 196 201 207 210 206 194 174 150 162 168 172 196 260 299 307 309 312 314 309 301 298 299 294 272 251 266 300 317 325 330 333 336 340
106 115 117 117 125 139 147 156 163 164 167 175 175 165 160 162 167 170 171 169 166 165 167 171 176 181 182 184 187 189 192 196 199 200 198 195 196 199 200 197 192 190 189 188 187 187 189 190 191 190 191 194 200 206 211 213 210 204 190 167 159 161 166 202 262 298 309 310 312 313 305 298 300 297 276 245 239 264 296 312 323 331 338 345 346
133 133 119 114 130 150 151 152 157 161 164 168 164 154 150 153 159 162 162 158 156 160 166 174 182 186 187 186 188 189 191 194 197 199 199 195 192 193 195 195 194 194 194 192 191 192 193 193 192 192 195 201 207 207 207 209 211 205 195 187 186 185 186 218 273 306 324 328 328 323 310 304 302 284 243 225 231 256 291 316 331 341 350 354 348
Height
737 741 745 748 752 754 758 761 764 767 770 772 774 775 777 779 780 782 784 785 787 789 790 792 794 796 798 799 800 802 803 805 807 808 809 810 811 812 814 815 815 816 817 819 820 821 822 823 824 825 827 828 829 830 830 830 831 831 832 833 833 835 836 836 836 835 835 835 835 835 835 836 835 835 835 835 835 835 834 834 833 833 832 832 831
732 736 740 744 747 750 754 757 761 764 767 769 770 772 774 775 777 779 780 781 783 785 787 788 791 793 794 796 797 798 800 801 803 805 805 807 808 809 811 812 813 813 814 816 817 819 820 821 823 824 826 827 827 829 829 830 830 830 831 831 832 833 834 835 835 835 834 833 834 834 834 834 834 834 834 834 834 833 833 832 831 830 830 829 828
727 732 736 739 743 746 750 753 757 760 763 765 766 768 770 772 773 775 776 778 780 782 783 785 788 790 791 793 794 795 797 798 800 801 802 804 805 806 808 809 810 811 812 813 815 817 819 820 821 823 824 825 826 827 828 829 829 829 830 830 831 832 833 833 834 834 833 832 832 832 832 833 833 833 833 833 832 832 831 830 829 828 827 826 825
723 727 731 734 738 742 745 748 752 755 758 760 762 764 767 768 770 771 772 775 776 778 780 782 784 786 788 789 791 792 793 795 797 798 799 801 802 804 805 807 808 809 810 812 814 815 817 818 820 822 823 824 825 826 827 828 828 828 829 829 830 830 831 832 832 832 832 831 831 831 831 831 831 831 831 831 831 830 829 828 827 826 825 824 823
719 722 726 730 733 736 740 743 746 749 752 755 757 760 763 765 765 767 769 771 773 775 777 779 781 782 784 785 787 789 790 792 794 795 797 798 800 802 803 805 806 808 809 811 812 814 816 817 818 820 821 822 823 825 826 827 827 828 828 828 829 829 829 830 830 830 830 830 829 829 830 829 829 829 829 829 829 828 828 827 825 824 823 822 821
715 718 722 725 728 731 734 737 740 743 746 749 753 756 759 761 761 763 764 767 769 771 773 775 776 778 780 782 784 785 787 790 791 792 794 796 798 800 801 803 805 806 807 809 810 812 813 815 817 818 819 820 822 823 824 825 826 826 826 827 827 827 827 827 828 828 828 828 827 828 828 828 827 827 827 828 827 826 825 824 824 823 822 820 819
712 715 717 720 723 725 728 731 734 737 741 744 748 752 754 756 757 758 761 763 766 767 769 771 772 774 776 779 781 783 785 787 789 790 792 794 796 797 799 801 802 803 805 806 808 809 811 813 815 816 817 818 820 821 822 823 823 824 824 824 825 825 825 825 826 826 826 826 826 826 826 826 825 825 825 826 825 824 823 822 821 821 821 819 818
708 710 713 715 717 719 722 725 728 732 736 740 744 747 750 752 753 755 758 760 762 763 765 767 769 771 774 776 778 780 782 784 786 788 790 792 794 795 796 798 799 801 802 804 806 807 808 810 812 813 815 816 817 819 820 821 821 822 822 822 823 823 823 823 823 824 824 824 824 824 824 824 823 823 823 823 823 822 822 821 819 818 818 817 817
703 706 708 709 711 714 718 721 724 727 732 735 739 742 745 747 750 752 754 756 758 760 762 764 766 769 771 773 775 777 779 780 782 785 787 790 791 792 794 795 796 798 799 801 803 805 806 807 808 810 812 813 814 816 817 819 819 819 819 820 821 821 821 821 821 822 822 822 822 822 822 821 821 821 821 820 820 820 819 819 818 816 816 814 813
698 701 702 703 706 710 714 717 720 723 726 729 733 737 740 743 746 748 750 752 754 757 759 762 763 765 767 770 772 774 775 776 778 781 784 787 788 789 790 791 793 795 797 798 800 801 803 804 805 807 809 810 812 813 815 816 816 816 817 818 818 819 819 820 820 820 821 821 820 820 820 819 819 819 819 818 818 818 817 817 816 815 814 812 810
692 694 696 698 703 707 709 712 715 718 721 724 728 731 735 738 741 744 746 749 751 754 756 758 759 762 764 766 768 769 771 773 775 778 781 783 784 785 786 788 790 792 794 795 797 798 800 801 802 804 806 807 808 810 812 813 813 814 815 815 816 817 817 818 818 818 819 819 818 819 818 817 817 817 817 816 816 815 815 815 814 813 812 811 809
686 688 690 695 699 702 705 707 710 713 716 720 723 727 731 735 737 740 743 745 748 750 752 754 756 758 760 762 763 765 767 769 771 775 777 778 780 781 783 785 787 789 790 792 793 795 796 798 799 801 802 803 805 808 809 811 811 812 813 813 814 815 815 816 816 816 816 816 817 817 817 816 815 815 814 814 813 812 812 812 812 812 811 810 809
680 683 686 690 693 696 700 703 705 708 711 715 719 723 727 730 733 736 738 741 744 746 748 750 752 754 756 757 759 760 763 765 767 770 773 774 776 778 780 782 783 785 786 788 789 791 792 794 796 798 800 801 803 805 807 808 809 810 811 811 812 812 812 812 813 814 814 815 816 815 814 814 813 812 812 812 811 810 810 810 810 810 809 808 807
675 677 681 684 687 691 695 698 700 703 707 711 716 719 722 725 728 732 735 738 740 742 744 746 748 750 751 752 755 757 759 761 763 767 770 771 773 775 777 778 780 782 783 785 786 788 790 792 794 796 798 800 801 803 804 806 807 808 808 809 809 809 809 809 810 811 812 814 815 813 812 813 811 810 811 810 809 808 808 808 808 808 807 806 805
669 672 676 679 682 686 689 692 695 699 703 708 712 715 718 721 725 728 731 734 736 737 740 742 743 745 747 749 751 753 755 757 760 764 766 768 770 772 774 776 777 779 781 782 784 786 788 790 792 794 795 797 799 801 802 804 805 806 806 806 807 806 806 806 807 808 810 812 812 811 811 811 810 808 808 808 807 807 806 806 806 806 805 804 803
664 668 671 674 677 680 683 686 690 694 699 703 707 710 714 717 721 724 727 730 732 734 736 738 739 741 744 746 748 750 752 754 757 761 763 765 767 770 772 774 775 777 779 781 783 784 786 789 790 792 793 795 797 799 800 802 803 803 804 804 804 804 804 804 804 805 807 808 808 809 809 809 808 806 806 806 805 805 805 804 804 804 803 802 800
659 662 665 668 671 674 678 681 685 690 695 699 702 705 709 713 717 720 723 726 728 730 731 733 735 738 740 743 745 747 748 750 753 756 758 761 764 766 769 771 773 775 777 779 781 782 784 786 788 789 790 792 795 796 798 799 800 801 801 802 802 802 802 802 800 800 802 804 806 807 806 805 805 804 804 804 803 803 803 802 802 802 801 800 799
653 656 659 662 665 669 673 677 681 686 690 693 697 701 704 709 712 715 718 721 723 725 727 730 732 734 737 739 740 743 744 745 748 751 754 757 760 762 766 768 771 773 775 777 779 780 782 784 786 787 788 790 792 794 795 796 796 797 799 799 799 799 799 798 797 797 799 801 802 803 803 802 802 802 802 803 802 802 801 800 800 800 799 799 798
647 650 653 656 661 665 670 674 678 681 685 688 692 696 700 704 707 711 714 716 719 721 724 727 729 731 733 735 737 739 741 742 746 749 752 755 756 758 762 765 768 770 772 774 776 778 780 782 783 785 786 788 790 791 792 793 793 795 795 796 796 796 795 795 795 796 797 798 799 800 800 800 800 800 801 801 801 800 799 799 799 798 797 797 796
641 644 647 652 658 662 666 670 673 676 680 684 688 692 696 700 704 707 710 713 716 719 721 724 726 728 731 733 735 737 740 742 746 748 750 753 754 756 759 762 765 768 770 772 774 775 777 780 781 783 784 786 787 788 789 790 791 792 792 792 793 793 792 793 794 794 796 797 797 798 798 798 798 798 799 799 799 798 798 797 797 797 796 796 795
637 641 645 649 654 657 660 664 667 671 676 680 685 689 692 696 700 703 707 711 713 716 719 722 724 727 729 732 735 738 740 743 745 748 750 752 754 756 758 760 763 765 768 770 771 773 775 777 779 780 782 783 785 785 786 788 789 791 791 792 792 791 791 792 793 794 795 795 796 796 796 796 796 797 797 797 797 796 796 796 796 796 796 795 794
636 639 643 645 648 651 654 657 661 666 672 676 681 686 689 693 697 700 704 708 711 714 717 720 723 727 729 732 735 737 740 742 745 747 749 752 754 756 757 759 761 764 766 768 769 771 773 775 776 778 780 781 782 783 785 787 789 791 791 792 792 792 792 792 793 793 794 794 794 794 794 795 795 795 795 795 795 795 796 796 796 795 794 794 792
633 636 639 642 644 646 649 652 656 661 667 672 677 682 686 690 694 698 702 706 709 713 717 720 723 726 729 732 735 737 739 742 744 746 748 751 753 756 758 759 761 763 765 766 768 770 771 773 775 777 778 779 780 782 783 784 787 789 789 789 791 792 792 792 792 792 792 793 793 793 793 793 794 794 794 794 795 795 795 795 795 794 793 792 791
627 631 634 638 641 644 647 650 653 657 663 668 674 679 684 688 692 696 700 704 708 712 716 719 722 725 729 731 734 736 738 740 742 744 747 750 752 755 757 759 761 762 763 765 766 769 770 772 774 775 777 778 779 781 781 781 784 787 787 788 790 790 790 790 791 791 791 791 791 791 791 792 792 793 793 794 794 794 794 794 793 792 791 790 789
623 626 630 634 638 642 646 649 652 655 659 664 670 675 681 685 690 694 698 702 707 711 715 718 721 724 727 730 732 735 737 738 740 742 745 748 750 752 754 756 758 761 763 764 766 767 769 771 772 774 775 777 778 779 779 780 782 784 786 787 788 788 789 789 789 790 790 790 790 790 791 791 792 792 793 793 793 793 792 792 791 790 789 788 786
626 625 628 631 635 639 643 647 651 654 657 661 666 672 677 681 687 692 696 701 706 710 714 717 720 723 725 728 730 733 734 736 738 741 744 746 748 750 751 752 755 758 761 763 765 766 768 770 771 773 774 776 777 777 778 779 781 783 784 785 786 787 787 787 788 788 788 788 789 789 790 790 791 792 792 792 792 791 791 790 788 787 786 785 783
634 630 628 628 631 634 638 642 646 651 655 659 664 670 675 679 684 689 694 699 704 708 712 715 717 720 723 725 728 730 731 734 737 740 743 745 747 749 750 750 752 755 759 762 764 765 767 769 770 772 773 775 776 777 777 779 780 781 782 783 784 785 785 785 786 786 786 787 788 788 789 790 790 790 791 791 790 790 789 788 786 785 784 782 780
640 639 634 630 629 630 633 637 642 647 652 657 662 668 674 677 682 686 691 695 700 705 709 711 713 716 719 723 726 728 730 733 736 739 742 744 747 748 749 749 751 753 757 760 763 765 766 768 769 771 772 773 775 776 777 778 779 780 781 781 782 783 783 783 784 784 785 786 787 787 787 788 789 789 789 789 788 788 787 786 785 783 782 780 778
639 644 641 635 633 633 635 636 638 643 649 655 661 668 674 678 681 685 690 694 698 702 706 708 711 715 718 721 723 726 729 732 734 736 740 742 745 747 747 748 750 752 756 759 761 763 765 767 768 770 771 772 773 774 776 777 777 778 779 779 780 781 781 782 782 783 784 785 785 786 786 787 787 787 787 787 787 786 785 784 783 781 780 778 777
631 642 647 644 640 640 640 640 641 645 649 653 660 669 676 680 683 686 691 695 699 702 706 709 712 715 718 721 723 725 728 730 732 735 738 740 743 745 746 747 748 751 754 757 760 762 764 765 767 769 770 771 772 773 774 775 776 776 777 777 778 779 779 780 781 782 783 783 784 784 784 785 785 786 786 785 785 784 783 782 781 780 778 777 775
622 635 648 652 649 647 648 650 652 654 654 655 660 668 676 682 686 689 692 696 700 704 708 711 715 717 720 723 725 726 728 729 731 734 736 739 741 743 744 746 747 749 752 755 757 760 762 764 767 768 769 770 771 772 773 774 774 775 775 776 776 777 777 778 779 780 781 781 782 782 783 783 784 784 784 783 783 782 781 780 779 778 777 775 774
617 626 643 654 654 655 660 662 661 659 657 658 663 668 674 682 688 692 695 697 700 704 708 711 714 717 720 723 725 726 727 728 730 733 735 737 739 740 742 744 746 748 751 753 756 758 761 764 766 767 768 769 770 771 772 772 773 774 774 774 775 775 776 777 778 779 780 780 781 782 782 782 783 782 782 782 781 780 780 778 777 776 775 774 773
623 627 642 653 656 660 665 665 662 658 658 661 666 670 676 682 687 691 695 698 701 704 706 709 712 715 719 722 724 725 725 727 729 732 734 736 737 739 741 743 745 747 750 752 755 758 760 763 765 766 767 768 769 770 771 771 772 773 773 773 774 774 775 776 777 778 779 780 781 781 781 782 782 781 781 780 780 779 778 776 775 774 773 772 771
632 636 646 654 656 658 661 660 659 658 660 664 669 673 679 684 687 690 693 697 701 704 706 708 711 714 717 721 723 724 725 726 728 731 733 735 736 738 740 743 745 748 750 752 754 757 759 762 764 765 766 767 768 769 770 771 772 773 773 773 774 774 775 776 777 778 779 780 780 780 781 781 780 780 780 779 778 778 776 775 774 773 772 771 770
640 643 649 654 655 656 657 657 658 661 664 668 672 677 681 685 688 690 693 696 700 704 706 708 710 713 716 719 721 723 724 726 728 730 732 734 735 737 740 743 745 748 750 752 754 756 759 761 763 764 765 766 767 768 769 771 772 772 773 774 774 775 776 777 778 778 779 779 779 779 779 779 779 779 778 778 777 776 775 774 773 772 771 770 769
648 648 650 653 655 655 656 658 660 664 668 671 675 679 683 686 689 691 694 697 700 704 707 708 710 713 716 718 720 722 724 726 728 730 731 733 735 737 739 741 744 746 748 751 753 756 758 760 762 763 764 765 767 768 769 770 771 772 772 773 774 775 776 777 777 778 778 778 778 778 778 778 777 777 777 776 776 775 774 773 772 771 770 769 768
653 652 653 654 655 656 658 661 663 668 672 675 678 681 684 686 689 692 695 697 700 703 706 708 710 712 715 717 719 721 723 725 728 729 731 733 735 737 739 740 742 745 747 749 752 755 757 759 760 762 763 765 766 768 769 770 770 771 772 773 773 774 775 776 777 777 777 777 777 777 777 776 776 775 775 775 774 774 773 772 771 770 769 768 766
655 655 655 657 657 658 661 664 667 672 675 678 680 682 684 686 689 692 695 698 700 703 705 706 708 710 712 714 717 719 722 725 727 729 731 733 735 737 739 741 742 744 746 749 751 754 756 758 759 761 763 764 766 767 768 769 770 770 771 772 773 774 775 775 776 776 776 776 776 775 775 775 774 774 774 773 773 772 771 771 770 769 768 767 765
657 658 659 660 661 662 665 667 671 674 677 679 682 683 685 687 689 692 695 698 701 702 703 705 707 709 710 713 715 718 721 723 725 727 730 732 735 737 739 741 742 744 746 748 751 753 755 757 759 760 762 764 765 766 767 768 769 769 770 771 772 773 774 774 774 774 774 774 774 774 774 773 773 773 773 772 771 771 770 770 769 768 767 765 764
660 661 662 663 664 667 669 671 674 677 678 681 683 684 685 688 691 693 695 698 699 701 702 703 706 708 709 712 714 716 719 721 723 726 729 731 734 737 738 740 742 743 745 747 749 751 754 756 758 760 761 763 764 765 766 767 767 768 769 770 771 772 772 772 773 773 772 772 772 773 773 773 772 772 771 771 770 770 769 768 768 767 766 764 763
662 663 664 666 668 670 671 673 675 677 680 683 685 686 687 688 691 693 694 696 697 699 701 703 705 706 708 711 713 715 718 720 722 725 728 730 733 736 738 739 741 742 744 746 748 750 753 755 757 759 760 762 763 764 765 766 766 767 768 769 769 770 771 771 771 771 771 771 770 771 771 771 771 770 770 769 769 768 768 767 767 766 764 763 762
666 666 666 668 670 672 673 675 676 678 680 684 687 689 688 688 689 691 692 694 696 699 701 703 705 707 709 711 713 715 718 719 722 725 728 730 733 735 737 739 740 741 743 745 747 749 752 754 756 758 759 761 762 763 764 764 765 766 767 768 768 769 769 770 770 770 770 769 769 769 769 769 769 769 769 768 768 767 767 766 765 764 763 762 761
670 668 668 669 670 672 674 676 678 679 681 683 686 687 686 686 688 689 691 693 696 698 701 704 706 707 710 712 714 716 718 720 722 725 728 730 732 734 736 738 739 740 742 744 746 748 751 752 755 756 758 759 761 761 762 763 764 765 766 766 767 767 768 768 768 768 768 768 768 768 768 768 767 767 767 766 766 766 765 765 764 763 762 761 759
671 671 671 672 672 672 674 676 677 679 680 681 682 683 683 684 686 688 690 693 695 698 701 703 705 707 710 712 714 716 718 720 722 725 727 730 731 733 735 737 738 740 741 743 745 748 749 751 753 755 757 758 759 760 761 762 763 764 765 765 766 766 766 766 766 766 766 766 766 766 766 766 766 765 765 765 764 764 764 763 763 762 761 760 758
672 674 675 675 674 673 674 675 675 676 678 679 681 682 683 684 687 689 691 692 694 697 701 703 705 707 710 712 714 717 718 720 723 725 727 729 730 732 734 736 737 739 741 743 745 746 748 750 752 753 755 757 758 759 760 761 762 763 763 764 764 764 764 764 765 765 765 765 765 765 764 764 764 763 763 763 763 763 762 762 762 761 759 758 757
671 674 676 677 675 674 675 675 675 676 677 678 680 682 684 686 688 692 694 695 696 698 700 702 705 707 710 712 714 716 718 721 723 725 727 728 730 731 733 734 736 738 740 742 743 745 746 748 750 751 753 755 756 758 759 760 761 762 762 763 763 763 763 763 764 763 763 763 763 763 763 762 762 762 761 761 761 761 761 761 760 759 758 757 756
670 672 674 675 674 674 674 675 676 676 678 679 680 681 683 685 687 691 695 697 697 698 700 702 705 707 709 711 714 716 718 721 723 725 727 728 729 730 732 733 735 737 739 740 742 743 745 746 748 750 751 753 755 756 758 758 759 760 761 762 762 762 762 762 762 762 762 761 761 761 761 760 760 760 760 760 760 760 760 759 759 758 757 756 755
672 672 673 674 675 675 676 678 678 679 679 681 682 682 683 685 687 689 693 695 696 698 700 702 705 707 709 711 713 716 718 721 723 725 726 727 728 730 731 732 734 736 737 739 740 742 743 745 746 748 750 752 753 755 756 757 758 760 761 761 761 761 761 761 761 761 760 760 759 759 759 758 758 758 758 758 758 758 758 758 757 756 756 755 753
674 675 675 675 676 676 677 679 680 679 679 682 685 685 684 686 688 690 692 695 696 698 700 703 705 707 710 712 714 716 718 720 722 724 725 726 727 729 730 731 733 734 735 737 738 740 742 744 745 747 749 750 752 753 755 756 757 758 759 760 760 760 760 760 760 760 759 758 758 757 757 757 757 757 756 756 757 757 757 757 756 755 754 753 752
676 676 676 676 677 677 678 679 680 680 681 683 685 685 685 687 689 691 693 695 696 698 701 704 706 708 710 711 714 716 718 720 721 723 724 725 726 728 729 730 732 733 734 736 737 739 741 742 744 745 747 749 750 752 753 754 755 757 757 758 758 759 759 759 759 758 758 757 757 756 756 755 755 755 755 755 755 756 755 755 755 754 753 752 751
678 678 678 678 680 681 681 680 681 682 683 684 684 685 686 688 689 691 694 696 698 700 702 704 706 708 710 712 714 716 718 719 721 723 724 725 726 726 728 729 731 732 734 735 736 738 739 740 742 743 745 746 748 750 751 752 754 755 755 756 757 757 757 758 758 757 757 756 756 755 755 754 754 754 754 754 754 754 754 754 753 752 752 751 750